Regional Weather Roundup
Issued by NWS Charleston, SC

Current Version | Previous Version | Graphics & Text | Print | Product List | Glossary On
Versions: 1 2 3 4 5 6 7 8 9 10 11 12 13 14 15 16 17 18 19 20 21 22 23 24 25 26 27 28 29 30 31 32 33 34 35 36 37 38 39 40 41 42 43 44 45 46 47 48 49 50
000
ASUS42 KCHS 272327
RWRCHS

REGIONAL WEATHER ROUNDUP
NATIONAL WEATHER SERVICE CHARLESTON SC
600 PM EST MON FEB 27 2017

NOTE: "FAIR" INDICATES FEW OR NO CLOUDS BELOW 12,000 FEET WITH NO
SIGNIFICANT WEATHER AND/OR OBSTRUCTIONS TO VISIBILITY.

NOT ALL STATIONS ARE QUALITY CONTROLLED. USE DATA WITH CAUTION...
ESPECIALLY DEWPOINT OBSERVATIONS.

SCZ027-030-031-034>040-042>050-280000-
...SOUTHEAST SOUTH CAROLINA...

CITY           SKY/WX    TMP DP  RH WIND       PRES   REMARKS
N CHARLESTON   PTCLDY    69  54  58 E10       30.32S
WATERFRONT PRK   N/A     66  60  81 E10       30.30S
MOUNT PLEASANT FAIR      64  55  72 CALM      30.33S
JOHNS ISLAND   MOCLDY    64  57  77 E8        30.32S
PINOPOLIS        N/A     70  54  56 SE5       30.24R
MONCKS CORNER  MOCLDY    66  52  59 E3        30.32S
SUMMERVILLE    MOCLDY    68  54  60 E5        30.32S
BEAUFORT MCAS  CLOUDY    68  59  73 E3        30.31R
BEAUFORT ARPT  CLOUDY    64  59  82 E3        30.30S
HILTON HEAD IS MOCLDY    68  59  73 NE7       30.30S
WALTERBORO     CLOUDY    68  54  60 SE3       30.32R
ALLENDALE      FAIR      70  54  56 CALM      30.28S

...SOUTHERN MIDLANDS AND PEE DEE...

CITY           SKY/WX    TMP DP  RH WIND       PRES   REMARKS
GEORGETOWN     FAIR      61  52  72 E6        30.37R
KINGSTREE      FAIR      63  50  63 E7        30.33S
ORANGEBURG     CLEAR     68  47  46 CALM      30.31S
BARNWELL       FAIR      70  52  52 E7        30.28F
AIKEN          FAIR      63  46  55 E6        30.32F
MANNING        FAIR     N/A N/A N/A MISG      30.32S
COLUMBIA       MOCLDY    67  45  45 SE8       30.30F
SUMTER         PTCLDY    65  44  47 NE3       30.29F
FLORENCE       CLEAR     65  49  56 SE7       30.32F
MYRTLE BEACH   CLEAR     61  52  72 E12       30.38R
N MYRTLE BEACH CLEAR     62  51  67 E8        30.35F

$$

GAZ063-065-086>088-099>101-113>116-118-119-134>141-150-280000-
...SOUTHEAST GEORGIA...

CITY           SKY/WX    TMP DP  RH WIND       PRES   REMARKS
SAVANNAH ARPT  MOCLDY    69  56  62 E7        30.29R
HUNTER AAF     PTCLDY    66  63  88 CALM      30.27R
FORT STEWART   MOCLDY    70  59  68 E3        30.25R
STATESBORO     MOCLDY    71  60  69 SE5       30.27R
SYLVANIA       CLOUDY   N/A N/A N/A SE7       30.28S
CLAXTON        CLOUDY   N/A N/A N/A E6        30.26S

...CSRA...CENTRAL AND FAR SOUTHEAST GEORGIA...

CITY           SKY/WX    TMP DP  RH WIND       PRES   REMARKS
THOMSON        CLOUDY    63  58  86 CALM      30.35R
AUGUSTA-BUSH   MOCLDY    69  51  52 NE6       30.27F
AUGUSTA-DANIEL PTCLDY    70  47  43 E3        30.29F
SWAINSBORO     MOCLDY    72  54  53 E5        30.26R
VIDALIA        CLOUDY    72  61  68 E6        30.24S
EASTMAN        LGT RAIN  65  51  62 N5        30.30R
HAZLEHURST     MOCLDY    74  58  56 SE7       30.21S
ALMA           CLOUDY    73  59  61 E3        30.22R
WAYCROSS       LGT RAIN  76  66  72 E5        30.23R
JESUP          CLOUDY    72  61  68 SE7       30.25S
BAXLEY         CLOUDY    72  63  73 E8        30.23S
BRUNSWICK      CLOUDY    72  64  78 E6        30.26R
SAINT SIMONS   MOCLDY    70  63  78 E8        30.24S

$$

SCZ027-028-034-036>038-045-046-048>050-GAZ119-141-280000-
...LAKE AND SUPPLEMENTAL COASTAL OBSERVATIONS...

STATION/POSITION TIME  TEMP    WIND        PRES    WAVE   SWELL
                       AIR SEA DIR/SP/G            HT/PER HT/PER/DIR
                 (UTC) (F)     (DEG/KT/KT) (MB)    (FT/S) (FT/S/D)
WINYAH BAY       2245   62      60/  8     1027.0S
LAKE MURRAY      2320   64     150/ 11/ 13 1024.4
ACE BASIN NERRS  2245   69        CALM     1026.0R
FORT PULASKI     2300   66 63   50/ 10/ 13 1026.1
SAPELO ISLAND    2300   69      60/  4     1025.0

$$

ANZ835-935-AMZ111-154-330-350-352-354-370-450-454-472-280000-
...C-MAN AND BUOY OBSERVATIONS...

STATION/POSITION TIME  TEMP    WIND        PRES    WAVE   SWELL
                       AIR SEA DIR/SP/G            HT/PER HT/PER/DIR
                 (UTC) (F)     (DEG/KT/KT) (MB)    (FT/S) (FT/S/D)
BUOY 41004       2250   69 69  100/  6/  8 1026.6R   4/ 8   3/100/ 8
BUOY 41008       2250   66 64   80/  8/  8 1024.1F   5/ 6   5/110/ 6
FOLLY BEACH CMAN 2300   62      60/ 12/ 13 1027.3F
CAPERS NEARSHORE 2308   61 61   70/ 14/ 17 1026.5F
FRIPP NEARSHORE  2308   63 62   60/ 10/ 14 1025.8R


STATION/POSITION TIME  TEMP    WIND        PRES    WAVE   SWELL
                       AIR SEA DIR/SP/G            HT/PER HT/PER/DIR
                 (UTC) (F)     (DEG/KT/KT) (MB)    (FT/S) (FT/S/D)
5E ST. MARYS GA  2300      66                N/A     4/ 6
FRYING PAN BUOY  2310   68 70  140/  8/ 12 1028.0
BUOY 41025       2250   65 72  150/ 10/ 16 1029.6R   3/ 8   3/100/ 8
CAPE LOOKOUT NC  2300   60      40/  9/ 10 1028.8R
BUOY 41002       2250   68 70  110/ 14/ 16 1028.1R   4/ 8   3/ 50/ 8
BUOY 41010       NOT AVBL
ST AUGUSTINE FL  2300   70 69  150/ 13/ 14 1023.9S


$$




USA.gov is the U.S. government's official web portal to all federal, state and local government web resources and services.